Appleton, MN

5:47 AM CST on December 05, 2016 (GMT -0600)
Appleton Municipal

Weather History for KAQP - October, 2013

Change the Weather History Date:

Tuesday, October 1, 2013

  Actual Average Record
Temperature  
Mean Temperature 60 °F -  
Max Temperature 73 °F 62 °F 84 °F (2005)
Min Temperature 48 °F 37 °F 23 °F (2003)
Degree Days  
Heating Degree Days 4    
Growing Degree Days 10 (Base 50)    
Moisture  
Dew Point 40 °F    
Average Humidity 47    
Maximum Humidity 82    
Minimum Humidity 18    
Precipitation  
Precipitation 0.00 in - - ()
Sea Level Pressure  
Sea Level Pressure 29.82 in    
Wind  
Wind Speed 10 mph (West)    
Max Wind Speed 21 mph    
Max Gust Speed 25 mph    
Visibility 10 miles    
Events      
Averages and records for this station are not official NWS values.
T = Trace of Precipitation, MM = Missing Value Source: NWS Daily Summary

Daily Weather History Graph

Daily Weather History Graph

Search for Another Location

Airport or City:

Trip Planner

Search our weather history database for the weather conditions in past years. The results will help you decide how hot, cold, wet, or windy it might be!

Date:

Astronomy

Oct. 01, 2013 Rise Set
Actual Time 7:22 AM CDT 7:03 PM CDT
Civil Twilight 6:53 AM CDT 7:33 PM CDT
Nautical Twilight 6:18 AM CDT 8:07 PM CDT
Astronomical Twilight 5:44 AM CDT 8:41 PM CDT
Moon 3:49 AM CDT (10/1) 5:14 PM CDT (10/1)
Length of Visible Light 12h 40m
Length of Day
11h 41m
Waning Crescent, 12% of the Moon is Illuminated
Oct 1
Waning Crescent
Oct 4
New
Oct 11
First Quarter
Oct 18
Full
Oct 26
Last Quarter

Hourly Weather History & Observations

Time (CDT) Temp. Dew Point Humidity Pressure Visibility Wind Dir Wind Speed Gust Speed Precip Events Conditions
12:13 AM 69.8 °F 51.8 °F 53% 29.50 in 10.0 mi South 5.8 mph - N/A   Clear
12:33 AM 69.8 °F 51.8 °F 53% 29.50 in 10.0 mi South 8.1 mph - N/A   Clear
12:53 AM 68.0 °F 51.8 °F 56% 29.50 in 10.0 mi South 5.8 mph - N/A   Clear
1:13 AM 68.0 °F 51.8 °F 56% 29.50 in 10.0 mi South 6.9 mph - N/A   Clear
1:33 AM 66.2 °F 51.8 °F 60% 29.53 in 10.0 mi SW 8.1 mph - N/A   Clear
1:53 AM 64.4 °F 51.8 °F 64% 29.54 in 10.0 mi WSW 6.9 mph - N/A   Clear
2:13 AM 66.2 °F 51.8 °F 60% 29.54 in 10.0 mi West 8.1 mph - N/A   Clear
2:33 AM 66.2 °F 51.8 °F 60% 29.55 in 10.0 mi WNW 8.1 mph - N/A   Clear
2:53 AM 66.2 °F 51.8 °F 60% 29.58 in 10.0 mi WNW 8.1 mph - N/A   Clear
3:13 AM 64.4 °F 51.8 °F 64% 29.61 in 10.0 mi WNW 12.7 mph 20.7 mph N/A   Clear
3:33 AM 64.4 °F 51.8 °F 64% 29.62 in 10.0 mi WNW 11.5 mph 18.4 mph N/A   Clear
3:53 AM 62.6 °F 51.8 °F 68% 29.65 in 10.0 mi WNW 9.2 mph - N/A   Clear
4:13 AM 60.8 °F 51.8 °F 72% 29.67 in 10.0 mi WNW 9.2 mph - N/A   Clear
4:33 AM 60.8 °F 51.8 °F 72% 29.69 in 10.0 mi WNW 9.2 mph - N/A   Clear
4:53 AM 60.8 °F 50.0 °F 68% 29.69 in 10.0 mi NW 9.2 mph - N/A   Clear
5:13 AM 59.0 °F 48.2 °F 67% 29.71 in 10.0 mi WNW 10.4 mph - N/A   Clear
5:33 AM 59.0 °F 48.2 °F 67% 29.72 in 10.0 mi WNW 8.1 mph - N/A   Clear
5:53 AM 57.2 °F 48.2 °F 72% 29.75 in 10.0 mi West 9.2 mph - N/A   Clear
6:13 AM 55.4 °F 46.4 °F 72% 29.75 in 10.0 mi West 5.8 mph - N/A   Clear
6:33 AM 53.6 °F 46.4 °F 77% 29.77 in 10.0 mi West 9.2 mph - N/A   Clear
6:53 AM 53.6 °F 46.4 °F 77% 29.78 in 10.0 mi West 8.1 mph - N/A   Clear
7:13 AM 51.8 °F 46.4 °F 82% 29.79 in 10.0 mi West 8.1 mph - N/A   Clear
7:33 AM 51.8 °F 46.4 °F 82% 29.81 in 10.0 mi West 8.1 mph - N/A   Clear
7:53 AM 53.6 °F 44.6 °F 72% 29.82 in 10.0 mi WSW 8.1 mph - N/A   Clear
8:13 AM 53.6 °F 44.6 °F 72% 29.82 in 10.0 mi WSW 8.1 mph - N/A   Clear
8:33 AM 55.4 °F 44.6 °F 67% 29.83 in 10.0 mi WSW 9.2 mph - N/A   Clear
8:53 AM 57.2 °F 44.6 °F 63% 29.85 in 10.0 mi West 9.2 mph - N/A   Clear
9:13 AM 60.8 °F 44.6 °F 55% 29.85 in 10.0 mi West 10.4 mph - N/A   Clear
9:33 AM 60.8 °F 42.8 °F 52% 29.86 in 10.0 mi WNW 11.5 mph - N/A   Clear
9:53 AM 62.6 °F 41.0 °F 45% 29.87 in 10.0 mi WNW 16.1 mph 20.7 mph N/A   Clear
10:13 AM 64.4 °F 39.2 °F 40% 29.88 in 10.0 mi WNW 15.0 mph 20.7 mph N/A   Clear
10:33 AM 66.2 °F 37.4 °F 35% 29.89 in 10.0 mi West 17.3 mph - N/A   Clear
10:54 AM 66.2 °F 37.4 °F 35% 29.90 in 10.0 mi WNW 15.0 mph 20.7 mph N/A   Clear
11:13 AM 66.2 °F 35.6 °F 32% 29.89 in 10.0 mi West 15.0 mph 19.6 mph N/A   Clear
11:33 AM 69.8 °F 33.8 °F 27% 29.90 in 10.0 mi West 15.0 mph - N/A   Clear
11:53 AM 69.8 °F 33.8 °F 27% 29.90 in 10.0 mi West 18.4 mph 23.0 mph N/A   Clear
12:13 PM 71.6 °F 33.8 °F 25% 29.90 in 10.0 mi West 17.3 mph - N/A   Clear
12:33 PM 71.6 °F 33.8 °F 25% 29.90 in 10.0 mi West 16.1 mph 23.0 mph N/A   Clear
12:53 PM 71.6 °F 30.2 °F 22% 29.90 in 10.0 mi West 20.7 mph 25.3 mph N/A   Clear
1:14 PM 71.6 °F 30.2 °F 22% 29.90 in 10.0 mi West 15.0 mph 18.4 mph N/A   Clear
1:33 PM 73.4 °F 30.2 °F 20% 29.89 in 10.0 mi West 13.8 mph 24.2 mph N/A   Clear
1:53 PM 73.4 °F 30.2 °F 20% 29.89 in 10.0 mi West 16.1 mph 23.0 mph N/A   Clear
2:13 PM 73.4 °F 30.2 °F 20% 29.89 in 10.0 mi West 17.3 mph 24.2 mph N/A   Clear
2:33 PM 73.4 °F 30.2 °F 20% 29.89 in 10.0 mi West 18.4 mph 25.3 mph N/A   Clear
2:53 PM 73.4 °F 28.4 °F 19% 29.90 in 10.0 mi West 19.6 mph 24.2 mph N/A   Clear
3:13 PM 73.4 °F 30.2 °F 20% 29.89 in 10.0 mi West 15.0 mph 25.3 mph N/A   Clear
3:33 PM 73.4 °F 28.4 °F 19% 29.90 in 10.0 mi West 19.6 mph - N/A   Clear
3:53 PM 73.4 °F 26.6 °F 18% 29.89 in 10.0 mi West 18.4 mph 24.2 mph N/A   Clear
4:13 PM 73.4 °F 26.6 °F 18% 29.90 in 10.0 mi West 19.6 mph 25.3 mph N/A   Clear
4:33 PM 73.4 °F 28.4 °F 19% 29.90 in 10.0 mi West 16.1 mph 21.9 mph N/A   Clear
4:53 PM 73.4 °F 26.6 °F 18% 29.90 in 10.0 mi West 13.8 mph 23.0 mph N/A   Clear
5:13 PM 73.4 °F 28.4 °F 19% 29.90 in 10.0 mi West 13.8 mph 18.4 mph N/A   Clear
5:33 PM 73.4 °F 28.4 °F 19% 29.90 in 10.0 mi West 15.0 mph - N/A   Clear
5:53 PM 71.6 °F 28.4 °F 20% 29.91 in 10.0 mi West 10.4 mph - N/A   Clear
6:14 PM 71.6 °F 30.2 °F 22% 29.91 in 10.0 mi West 8.1 mph - N/A   Clear
6:33 PM 68.0 °F 32.0 °F 26% 29.91 in 10.0 mi West 5.8 mph - N/A   Clear
6:53 PM 64.4 °F 32.0 °F 30% 29.92 in 10.0 mi West 5.8 mph - N/A   Clear
7:14 PM 60.8 °F 33.8 °F 36% 29.92 in 10.0 mi WSW 4.6 mph - N/A   Clear
7:34 PM 60.8 °F 35.6 °F 39% 29.93 in 10.0 mi SSW 5.8 mph - N/A   Clear
7:53 PM 59.0 °F 35.6 °F 42% 29.93 in 10.0 mi WSW 6.9 mph - N/A   Clear
8:13 PM 55.4 °F 37.4 °F 51% 29.94 in 10.0 mi WSW 6.9 mph - N/A   Clear
8:33 PM 53.6 °F 37.4 °F 54% 29.94 in 10.0 mi SW 5.8 mph - N/A   Clear
8:54 PM 55.4 °F 37.4 °F 51% 29.95 in 10.0 mi SW 4.6 mph - N/A   Clear
9:13 PM 55.4 °F 37.4 °F 51% 29.95 in 10.0 mi SW 3.5 mph - N/A   Clear
9:33 PM 53.6 °F 37.4 °F 54% 29.95 in 10.0 mi SW 5.8 mph - N/A   Clear
9:53 PM 53.6 °F 37.4 °F 54% 29.96 in 10.0 mi SW 4.6 mph - N/A   Clear
10:14 PM 51.8 °F 37.4 °F 58% 29.97 in 10.0 mi SW 4.6 mph - N/A   Clear
10:33 PM 50.0 °F 39.2 °F 66% 29.98 in 10.0 mi WSW 6.9 mph - N/A   Clear
10:53 PM 50.0 °F 39.2 °F 66% 29.98 in 10.0 mi West 4.6 mph - N/A   Clear
11:13 PM 51.8 °F 39.2 °F 62% 29.98 in 10.0 mi West 4.6 mph - N/A   Clear
11:33 PM 48.2 °F 39.2 °F 71% 29.99 in 10.0 mi Calm Calm - N/A   Clear
11:53 PM 48.2 °F 39.2 °F 71% 29.99 in 10.0 mi Calm Calm - N/A   Clear